Marysville, OH

4:27 AM EST on February 07, 2016 (GMT -0500)
Marysville

Weather History for KMRT - September, 2013

Change the Weather History Date:

Thursday, September 26, 2013

  Actual Average (KDLZ) Record (KDLZ)
Temperature  
Mean Temperature 63 °F -  
Max Temperature 78 °F 70 °F 87 °F (1986)
Min Temperature 48 °F 45 °F 32 °F (1940)
Degree Days  
Heating Degree Days 2    
Growing Degree Days 13 (Base 50)    
Moisture  
Dew Point 46 °F    
Average Humidity 65    
Maximum Humidity 94    
Minimum Humidity 24    
Precipitation  
Precipitation 0.00 in - - ()
Sea Level Pressure  
Sea Level Pressure 30.04 in    
Wind  
Wind Speed 2 mph (NNE)    
Max Wind Speed 12 mph    
Max Gust Speed -    
Visibility 9 miles    
Events      
Averages and records for this station are not official NWS values.
T = Trace of Precipitation, MM = Missing Value Source: NWS Daily Summary

Daily Weather History Graph

Daily Weather History Graph

Search for Another Location

Airport or City:

Trip Planner

Search our weather history database for the weather conditions in past years. The results will help you decide how hot, cold, wet, or windy it might be!

Date:

Astronomy

Sep. 26, 2013 Rise Set
Actual Time 7:25 AM EDT 7:23 PM EDT
Civil Twilight 6:57 AM EDT 7:50 PM EDT
Nautical Twilight 6:26 AM EDT 8:22 PM EDT
Astronomical Twilight 5:54 AM EDT 8:54 PM EDT
Moon No Moon Rise 2:16 PM EDT (9/26)
Length of Visible Light 12h 52m
Length of Day
11h 58m
Waning Gibbous, 55% of the Moon is Illuminated
Sep 26
Waning Gibbous
Sep 26
Last Quarter
Oct 4
New
Oct 11
First Quarter
Oct 18
Full

Hourly Weather History & Observations

Time (EDT) Temp. Dew Point Humidity Pressure Visibility Wind Dir Wind Speed Gust Speed Precip Events Conditions
12:13 AM 53.4 °F 49.6 °F 87% 29.97 in 10.0 mi Calm Calm - N/A   Clear
12:34 AM 52.0 °F 48.7 °F 89% 29.97 in 10.0 mi Calm Calm - N/A   Clear
12:53 AM 52.7 °F 49.6 °F 89% 29.97 in 10.0 mi NNE 3.5 mph - N/A   Clear
1:13 AM 52.3 °F 49.3 °F 89% 29.97 in 10.0 mi Calm Calm - N/A   Clear
1:33 AM 50.2 °F 47.8 °F 92% 29.96 in 7.0 mi Calm Calm - N/A   Clear
1:53 AM 50.7 °F 48.7 °F 93% 29.96 in 7.0 mi Calm Calm - N/A   Clear
2:14 AM 50.0 °F 47.8 °F 92% 29.96 in 7.0 mi Calm Calm - N/A   Clear
2:33 AM 49.8 °F 47.8 °F 93% 29.96 in 7.0 mi Calm Calm - N/A   Clear
2:53 AM 49.6 °F 47.7 °F 93% 29.96 in 7.0 mi Calm Calm - N/A   Clear
3:14 AM 50.2 °F 48.2 °F 93% 29.96 in 7.0 mi NNE 3.5 mph - N/A   Clear
3:33 AM 50.5 °F 48.6 °F 93% 29.96 in 7.0 mi Calm Calm - N/A   Clear
3:53 AM 48.7 °F 46.8 °F 93% 29.96 in 7.0 mi Calm Calm - N/A   Clear
4:14 AM 48.2 °F 46.6 °F 94% 29.96 in 4.0 mi Calm Calm - N/A   Clear
4:33 AM 48.4 °F 46.8 °F 94% 29.97 in 5.0 mi Calm Calm - N/A   Clear
4:53 AM 49.5 °F 47.8 °F 94% 29.97 in 7.0 mi Calm Calm - N/A   Clear
5:14 AM 49.3 °F 47.5 °F 94% 29.98 in 5.0 mi North 3.5 mph - N/A   Clear
5:33 AM 48.7 °F 46.9 °F 93% 29.99 in 3.0 mi Calm Calm - N/A   Clear
5:53 AM 49.1 °F 47.3 °F 93% 29.99 in 5.0 mi Calm Calm - N/A   Clear
6:14 AM 48.2 °F 46.6 °F 94% 30.00 in 5.0 mi Calm Calm - N/A   Clear
6:33 AM 49.3 °F 47.7 °F 94% 30.01 in 7.0 mi North 4.6 mph - N/A   Clear
6:53 AM 49.3 °F 47.5 °F 94% 30.02 in 7.0 mi North 3.5 mph - N/A   Clear
7:13 AM 49.6 °F 47.7 °F 93% 30.02 in 5.0 mi North 3.5 mph - N/A   Clear
7:33 AM 49.3 °F 47.3 °F 93% 30.03 in 5.0 mi Calm Calm - N/A   Clear
7:53 AM 49.5 °F 47.5 °F 93% 30.03 in 5.0 mi Calm Calm - N/A   Clear
8:13 AM 50.4 °F 48.4 °F 93% 30.03 in 5.0 mi Calm Calm - N/A   Clear
8:34 AM 51.3 °F 49.1 °F 92% 30.04 in 5.0 mi NNE 4.6 mph - N/A   Clear
8:53 AM 52.3 °F 49.5 °F 90% 30.05 in 7.0 mi NNE 4.6 mph - N/A   Clear
9:13 AM 54.5 °F 50.4 °F 86% 30.05 in 7.0 mi NNE 4.6 mph - N/A   Clear
9:33 AM 55.9 °F 50.9 °F 83% 30.06 in 10.0 mi NNE 5.8 mph - N/A   Clear
9:53 AM 57.7 °F 51.8 °F 81% 30.06 in 10.0 mi North 3.5 mph - N/A   Clear
10:13 AM 60.3 °F 51.8 °F 74% 30.06 in 10.0 mi North 3.5 mph - N/A   Clear
10:33 AM 62.2 °F 51.6 °F 68% 30.07 in 10.0 mi North 4.6 mph - N/A   Clear
10:54 AM 64.6 °F 51.6 °F 63% 30.07 in 10.0 mi NNE 4.6 mph - N/A   Clear
11:13 AM 66.2 °F 51.8 °F 60% 30.07 in 10.0 mi NNE 6.9 mph - N/A   Clear
11:33 AM 68.7 °F 50.5 °F 52% 30.07 in 10.0 mi NE 3.5 mph - N/A   Clear
11:54 AM 70.7 °F 49.8 °F 48% 30.07 in 10.0 mi ENE 4.6 mph - N/A   Clear
12:13 PM 71.2 °F 48.6 °F 45% 30.07 in 10.0 mi NE 5.8 mph - N/A   Clear
12:33 PM 72.7 °F 47.7 °F 41% 30.07 in 10.0 mi NE 5.8 mph - N/A   Clear
12:54 PM 73.4 °F 45.9 °F 37% 30.07 in 10.0 mi ENE 6.9 mph - N/A   Clear
1:13 PM 74.7 °F 44.8 °F 34% 30.07 in 10.0 mi NNE 4.6 mph - N/A   Clear
1:33 PM 74.3 °F 45.9 °F 36% 30.06 in 10.0 mi NE 3.5 mph - N/A   Clear
1:54 PM 75.4 °F 44.4 °F 33% 30.06 in 10.0 mi ENE 6.9 mph - N/A   Clear
2:13 PM 76.5 °F 41.7 °F 29% 30.05 in 10.0 mi North 5.8 mph - N/A   Clear
2:33 PM 76.3 °F 42.6 °F 30% 30.05 in 10.0 mi North 5.8 mph - N/A   Clear
2:53 PM 77.9 °F 42.1 °F 28% 30.04 in 10.0 mi ENE 8.1 mph - N/A   Clear
3:13 PM 78.1 °F 41.2 °F 27% 30.04 in 10.0 mi NE 4.6 mph - N/A   Clear
3:34 PM 77.2 °F 40.6 °F 27% 30.03 in 10.0 mi NNE 4.6 mph - N/A   Clear
3:53 PM 78.6 °F 39.2 °F 24% 30.03 in 10.0 mi ENE 8.1 mph - N/A   Clear
4:13 PM 78.1 °F 39.2 °F 25% 30.03 in 10.0 mi NE 9.2 mph - N/A   Clear
4:34 PM 78.4 °F 41.0 °F 26% 30.03 in 10.0 mi NNE 6.9 mph - N/A   Clear
4:53 PM 77.4 °F 39.7 °F 26% 30.04 in 10.0 mi NNE 10.4 mph - N/A   Clear
5:13 PM 77.2 °F 40.3 °F 27% 30.04 in 10.0 mi ENE 6.9 mph - N/A   Clear
5:33 PM 77.0 °F 39.6 °F 26% 30.04 in 10.0 mi NE 11.5 mph - N/A   Clear
5:53 PM 76.3 °F 40.5 °F 28% 30.05 in 10.0 mi NE 8.1 mph - N/A   Clear
6:13 PM 75.2 °F 40.3 °F 28% 30.05 in 10.0 mi NE 5.8 mph - N/A   Clear
6:33 PM 74.3 °F 41.4 °F 31% 30.06 in 10.0 mi NNE 5.8 mph - N/A   Clear
6:54 PM 72.5 °F 41.9 °F 33% 30.06 in 10.0 mi NE 5.8 mph - N/A   Clear
7:13 PM 68.2 °F 45.5 °F 44% 30.06 in 10.0 mi ENE 3.5 mph - N/A   Clear
7:33 PM 63.3 °F 47.1 °F 56% 30.07 in 10.0 mi Calm Calm - N/A   Clear
7:54 PM 61.7 °F 46.6 °F 58% 30.07 in 10.0 mi Calm Calm - N/A   Clear
8:13 PM 65.1 °F 44.6 °F 47% 30.08 in 10.0 mi NNE 5.8 mph - N/A   Clear
8:34 PM 63.5 °F 46.2 °F 53% 30.09 in 10.0 mi NNE 5.8 mph - N/A   Clear
8:53 PM 62.6 °F 46.8 °F 56% 30.09 in 10.0 mi NNE 4.6 mph - N/A   Clear
9:13 PM 62.1 °F 45.7 °F 55% 30.10 in 10.0 mi NE 6.9 mph - N/A   Clear
9:34 PM 60.1 °F 45.5 °F 59% 30.11 in 10.0 mi NNE 4.6 mph - N/A   Clear
9:53 PM 59.0 °F 45.5 °F 61% 30.11 in 10.0 mi NNE 3.5 mph - N/A   Clear
10:13 PM 54.1 °F 44.8 °F 71% 30.12 in 10.0 mi Calm Calm - N/A   Clear
10:34 PM 53.2 °F 45.1 °F 74% 30.12 in 10.0 mi North 3.5 mph - N/A   Clear
10:53 PM 52.7 °F 44.2 °F 73% 30.12 in 10.0 mi Calm Calm - N/A   Clear
11:13 PM 51.1 °F 43.9 °F 76% 30.12 in 10.0 mi North 3.5 mph - N/A   Clear
11:34 PM 50.9 °F 43.9 °F 77% 30.12 in 10.0 mi Calm Calm - N/A   Clear
11:53 PM 52.7 °F 44.6 °F 74% 30.12 in 10.0 mi Calm Calm - N/A   Clear